AMOS-5 1 37950U 11074A 21056.23285573 .00000148 00000-0 00000-0 0 9999 2 37950 4.1664 79.4764 0005551 321.5911 230.3646 1.00208449 33561 LUCH 5A 1 37951U 11074B 21056.63214580 -.00000051 00000-0 00000-0 0 9998 2 37951 3.8497 108.0308 0003299 269.1135 173.0498 1.00271989 33766 BREEZE-M R/B 1 37952U 11074C 21056.12549314 -.00000145 00000-0 00000-0 0 9993 2 37952 6.6968 59.7518 0735279 141.0910 33.8498 0.89625964 29776